Regional Weather Roundup
Issued by NWS Green Bay, WI

Home | Current Version | Previous Version | Graphics & Text | Print | Product List | Glossary Off
Versions: 1 2 3 4 5 6 7 8 9 10 11 12 13 14 15 16 17 18 19 20 21 22 23 24 25 26 27 28 29 30 31 32 33 34 35 36 37 38 39 40 41 42 43 44 45 46 47 48 49 50

000
ASUS43 KGRB 231001
RWRGRB

NORTH-CENTRAL AND NORTHEAST WISCONSIN REGIONAL WEATHER ROUNDUP
NATIONAL WEATHER SERVICE GREEN BAY WI
500 AM CDT SUN JUL 23 2017

WIZ005-009-010>012-018-019-231100-
NORTH CENTRAL WISCONSIN

CITY           SKY/WX    TMP DP  RH WIND       PRES   REMARKS
IRONWOOD       FOG       56  56 100 W5        29.82S VSB 1/4
MANITOWISH WTR NOT AVBL
ARBOR VITAE    NOT AVBL
EAGLE RIVER    NOT AVBL
LAND O LAKES   NOT AVBL
RHINELANDER    MOCLDY    58  58 100 W6        29.82R FOG
PHILLIPS       FOG       58  58 100 CALM      29.81R VSB 3/4
ANTIGO         NOT AVBL
TOMAHAWK       NOT AVBL
MERRILL        MOCLDY    58  58 100 CALM      29.81R
$$

WIZ013-073-231100-
NORTHEAST WISCONSIN

CITY           SKY/WX    TMP DP  RH WIND       PRES   REMARKS
IRON MOUNTAIN  CLOUDY    66  64  93 N3        29.76R FOG
MARINETTE      FOG       65  64  97 CALM      29.75F VSB 1/2
$$

WIZ017-030-035>037-045-231100-
CENTRAL WISCONSIN

CITY           SKY/WX    TMP DP  RH WIND       PRES   REMARKS
MEDFORD        NOT AVBL
WAUSAU         CLEAR     65  63  93 NW6       29.79R
MOSINEE        NOT AVBL
MARSHFIELD     MOCLDY    63  60  90 NW6       29.81R
WISC RAPIDS    CLEAR     59  59 100 NW3       29.80S FOG
STEVENS POINT  NOT AVBL
WAUPACA        NOT AVBL
SHAWANO        NOT AVBL
CLINTONVILLE   NOT AVBL
WAUTOMA        CLEAR     66  65  96 W3        29.79S
$$

WIZ038-039-048-051-231100-
FOX VALLEY

CITY           SKY/WX    TMP DP  RH WIND       PRES   REMARKS
NWS GREEN BAY  CLEAR     67  67 100 SW5       29.76R
APPLETON       NOT AVBL
OSHKOSH        CLEAR     67  66  97 CALM      29.77S FOG
FOND DU LAC    CLEAR     70  67  90 CALM      29.78R
$$

WIZ022-050-052-231100-
EAST CENTRAL WISCONSIN

CITY           SKY/WX    TMP DP  RH WIND       PRES   REMARKS
EPHRAIM        NOT AVBL
WASHINGTON ISL NOT AVBL
STURGEON BAY     N/A     64  62  93 SW5       29.76S
MANITOWOC      NOT AVBL
SHEBOYGAN      CLOUDY    67  67 100 S7        29.78S
$$

LMZ563-521-522-541>543-231100-
LAKESHORE

STATION/POSITION TIME  TEMP    WIND        PRES    VSBY  WAVE
                       AIR SEA DIR/SP/G                  HT/PER
                 (UTC) (F)     (DEG/KT/KT) (MB)    (MI)  (FT/S)
SHEBOYGAN LKSHOR 0900   67     150/ 10/ 12 1007.6F
KEWAUNEE LKSHORE 0930   66     210/  5/  9 1006.7F
NORTHPORT PIER   0940   64        CALM     1007.1F
N MID LAKE BUOY  0850   67 68  220/  4/  4 1008.0R         0
S GREEN BAY BUOY 0930   70 72  260/ 12/ 14 1007.1F
SISTER BAY LKSHO 0917   65     140/  5/  6   N/A
CHAMBERS ISLAND  0940   67     240/  4/  5 1006.8S
MENOMINEE LKSHOR 0930   66     250/  5/  9 1007.2R
$$




USA.gov is the U.S. government's official web portal to all federal, state and local government web resources and services.